DLH457 KLAX-EDDF

Flight info

Callsign DLH457
Flight time N/A
Altitude 35000
Route ORCKA5 LAS Q70 BLIPP Q842 WINEN DCT HELPR DCT CKW DCT DPR DCT GABOV DCT GOSEP/N0482F370 DCT FEDDY DCT IKMAN/M084F370 DCT KETLA DCT 63N050W 6230N04000W 6130N03000W/M085F390 5930N02000W DCT GOMUP/N0489F390 DCT GINGA DCT GODOS DCT SOGPO DCT DIXAT DIXAT1D
Aircraft A388/J-SADE2E3FGHIJ3J4J5M1RWXY/LB1D1

Departure

Time 2026-04-26 03:23
Airport Los Angeles International Airport (KLAX)

Arrival

Time N/A
Airport Frankfurt Main Airport (EDDF)
Time Latitude Longitude Altitude Speed Heading
2026-04-26 02:42 33.94099 -118.41091 100 ft 0 kts 83°
2026-04-26 03:08 33.94097 -118.41106 100 ft 3 kts 83°
2026-04-26 03:08 33.94094 -118.41138 99 ft 3 kts 82°
2026-04-26 03:09 33.94090 -118.41170 98 ft 3 kts 89°
2026-04-26 03:09 33.94095 -118.41189 99 ft 3 kts 134°
2026-04-26 03:09 33.94117 -118.41201 99 ft 0 kts 179°
2026-04-26 03:09 33.94141 -118.41202 101 ft 1 kts 173°
2026-04-26 03:10 33.94145 -118.41202 99 ft 0 kts 173°
2026-04-26 03:14 33.94139 -118.41201 101 ft 3 kts 173°
2026-04-26 03:14 33.94104 -118.41197 99 ft 7 kts 174°
2026-04-26 03:14 33.94066 -118.41216 100 ft 6 kts 233°
2026-04-26 03:14 33.94062 -118.41249 100 ft 3 kts 302°
2026-04-26 03:15 33.94087 -118.41278 100 ft 7 kts 327°
2026-04-26 03:15 33.94139 -118.41300 101 ft 10 kts 349°
2026-04-26 03:15 33.94217 -118.41314 102 ft 13 kts 352°
2026-04-26 03:15 33.94311 -118.41328 101 ft 15 kts 353°
2026-04-26 03:16 33.94422 -118.41344 100 ft 17 kts 353°
2026-04-26 03:16 33.94540 -118.41361 101 ft 17 kts 353°
2026-04-26 03:16 33.94641 -118.41376 102 ft 11 kts 353°
2026-04-26 03:16 33.94709 -118.41386 103 ft 12 kts 353°
2026-04-26 03:17 33.94745 -118.41389 103 ft 3 kts 16°
2026-04-26 03:17 33.94763 -118.41376 105 ft 3 kts 46°
2026-04-26 03:17 33.94779 -118.41346 106 ft 5 kts 68°
2026-04-26 03:17 33.94791 -118.41289 106 ft 9 kts 82°
2026-04-26 03:18 33.94801 -118.41207 107 ft 12 kts 83°
2026-04-26 03:18 33.94812 -118.41100 105 ft 14 kts 83°
2026-04-26 03:18 33.94824 -118.40982 107 ft 15 kts 83°
2026-04-26 03:18 33.94837 -118.40846 105 ft 17 kts 83°
2026-04-26 03:19 33.94853 -118.40696 105 ft 19 kts 83°
2026-04-26 03:19 33.94869 -118.40542 105 ft 18 kts 83°
2026-04-26 03:19 33.94886 -118.40390 105 ft 19 kts 82°
2026-04-26 03:19 33.94901 -118.40240 107 ft 17 kts 84°
2026-04-26 03:20 33.94913 -118.40109 105 ft 13 kts 83°
2026-04-26 03:20 33.94924 -118.39999 104 ft 15 kts 81°
2026-04-26 03:20 33.94979 -118.39920 108 ft 9 kts 14°
2026-04-26 03:20 33.95018 -118.39925 111 ft 4 kts 326°
2026-04-26 03:21 33.95034 -118.39953 111 ft 5 kts 281°
2026-04-26 03:21 33.95037 -118.39999 111 ft 0 kts 264°
2026-04-26 03:22 33.95032 -118.40047 112 ft 29 kts 263°
2026-04-26 03:22 33.94972 -118.40606 110 ft 106 kts 263°
2026-04-26 03:22 33.94853 -118.41747 112 ft 161 kts 263°
2026-04-26 03:22 33.94716 -118.43125 310 ft 178 kts 263°
2026-04-26 03:23 33.94577 -118.44652 874 ft 173 kts 263°
2026-04-26 03:23 33.94448 -118.45993 1528 ft 168 kts 263°
2026-04-26 03:23 33.94312 -118.47408 2000 ft 177 kts 263°
2026-04-26 03:23 33.94165 -118.48942 2235 ft 193 kts 263°
2026-04-26 03:24 33.94008 -118.50581 2342 ft 203 kts 263°
2026-04-26 03:24 33.93836 -118.52376 2412 ft 225 kts 263°
2026-04-26 03:24 33.93651 -118.54324 2729 ft 243 kts 263°
2026-04-26 03:24 33.93470 -118.56215 3453 ft 239 kts 263°
2026-04-26 03:25 33.93281 -118.58201 4167 ft 241 kts 263°
2026-04-26 03:25 33.93089 -118.60212 4853 ft 244 kts 263°
2026-04-26 03:25 33.92897 -118.62225 5521 ft 246 kts 263°
2026-04-26 03:25 33.92702 -118.64277 6193 ft 249 kts 263°
2026-04-26 03:26 33.92408 -118.66218 6798 ft 252 kts 248°
2026-04-26 03:26 33.91400 -118.67933 7459 ft 254 kts 218°
2026-04-26 03:26 33.89813 -118.68856 8091 ft 258 kts 190°
2026-04-26 03:26 33.88027 -118.68754 8721 ft 261 kts 161°
2026-04-26 03:27 33.86476 -118.67641 9346 ft 264 kts 134°
2026-04-26 03:27 33.85518 -118.65745 9962 ft 267 kts 105°
2026-04-26 03:27 33.85395 -118.63547 10555 ft 270 kts 78°
2026-04-26 03:27 33.86080 -118.61461 11148 ft 273 kts 59°
2026-04-26 03:28 33.87128 -118.59461 11340 ft 292 kts 57°
2026-04-26 03:28 33.88197 -118.57285 11523 ft 310 kts 62°
2026-04-26 03:28 33.89182 -118.54903 11676 ft 326 kts 65°
2026-04-26 03:28 33.90116 -118.52336 11842 ft 342 kts 67°
2026-04-26 03:29 33.91031 -118.49654 12229 ft 348 kts 68°
2026-04-26 03:29 33.91927 -118.46975 12747 ft 351 kts 68°
2026-04-26 03:29 33.92860 -118.44304 13266 ft 354 kts 63°
2026-04-26 03:29 33.94034 -118.41903 13749 ft 356 kts 54°
2026-04-26 03:30 33.95513 -118.39387 14274 ft 359 kts 55°
2026-04-26 03:30 33.96933 -118.36905 14751 ft 361 kts 55°
2026-04-26 03:30 33.98358 -118.34382 15240 ft 364 kts 56°
2026-04-26 03:30 33.99771 -118.31877 15713 ft 367 kts 56°
2026-04-26 03:31 34.01230 -118.29293 16179 ft 369 kts 56°
2026-04-26 03:31 34.02672 -118.26746 16638 ft 372 kts 55°
2026-04-26 03:31 34.04139 -118.24158 17087 ft 374 kts 55°
2026-04-26 03:31 34.05600 -118.21581 17522 ft 377 kts 55°
2026-04-26 03:32 34.07100 -118.18933 17948 ft 380 kts 55°
2026-04-26 03:32 34.08551 -118.16368 18334 ft 382 kts 55°
2026-04-26 03:32 34.10059 -118.13701 18753 ft 384 kts 56°
2026-04-26 03:32 34.11455 -118.11230 19123 ft 386 kts 56°
2026-04-26 03:33 34.12959 -118.08565 19523 ft 389 kts 56°
2026-04-26 03:33 34.14492 -118.05847 19900 ft 391 kts 56°
2026-04-26 03:33 34.16028 -118.03121 20268 ft 393 kts 56°
2026-04-26 03:33 34.16355 -118.02541 20344 ft 394 kts 56°
2026-04-26 03:34 34.17301 -118.00859 20575 ft 396 kts 56°
2026-04-26 03:34 34.18851 -117.98104 20857 ft 400 kts 56°
2026-04-26 03:34 34.20417 -117.95320 21142 ft 404 kts 56°
2026-04-26 03:34 34.22003 -117.92496 21544 ft 405 kts 56°
2026-04-26 03:35 34.23593 -117.89665 21850 ft 408 kts 56°
2026-04-26 03:35 34.25182 -117.86832 22324 ft 407 kts 56°
2026-04-26 03:35 34.26762 -117.84012 22610 ft 410 kts 56°
2026-04-26 03:35 34.28326 -117.81221 22842 ft 415 kts 56°
2026-04-26 03:36 34.29958 -117.78305 23055 ft 420 kts 56°
2026-04-26 03:36 34.31568 -117.75425 23471 ft 420 kts 56°
2026-04-26 03:36 34.33208 -117.72490 23752 ft 422 kts 56°
2026-04-26 03:36 34.34307 -117.70522 23988 ft 423 kts 56°
2026-04-26 03:37 34.36490 -117.66665 24190 ft 431 kts 54°
2026-04-26 03:37 34.37650 -117.64727 24465 ft 430 kts 53°
2026-04-26 03:37 34.39347 -117.61928 24826 ft 429 kts 53°
2026-04-26 03:37 34.41126 -117.58993 25195 ft 430 kts 53°
2026-04-26 03:38 34.42893 -117.56057 25527 ft 432 kts 54°
2026-04-26 03:38 34.44663 -117.53099 25868 ft 434 kts 54°
2026-04-26 03:38 34.46315 -117.50328 26194 ft 436 kts 54°
2026-04-26 03:38 34.48101 -117.47328 26529 ft 438 kts 54°
2026-04-26 03:39 34.49829 -117.44421 26884 ft 440 kts 54°
2026-04-26 03:39 34.51621 -117.41405 27216 ft 442 kts 54°
2026-04-26 03:39 34.53407 -117.38395 27561 ft 444 kts 54°
2026-04-26 03:39 34.55124 -117.35500 27889 ft 446 kts 54°
2026-04-26 03:40 34.56939 -117.32437 28234 ft 448 kts 54°
2026-04-26 03:40 34.58703 -117.29459 28549 ft 451 kts 54°
2026-04-26 03:40 34.60522 -117.26385 28862 ft 454 kts 54°
2026-04-26 03:40 34.62340 -117.23309 29186 ft 456 kts 54°
2026-04-26 03:41 34.64176 -117.20200 29517 ft 458 kts 54°
2026-04-26 03:41 34.66015 -117.17084 29819 ft 461 kts 54°
2026-04-26 03:41 34.67815 -117.14031 30149 ft 463 kts 54°
2026-04-26 03:41 34.69762 -117.10725 30451 ft 466 kts 54°
2026-04-26 03:42 34.71621 -117.07566 30774 ft 468 kts 54°
2026-04-26 03:42 34.73465 -117.04431 31129 ft 469 kts 54°
2026-04-26 03:42 34.75365 -117.01197 31453 ft 472 kts 54°
2026-04-26 03:42 34.77148 -116.98158 31726 ft 474 kts 54°
2026-04-26 03:43 34.78862 -116.95236 31965 ft 476 kts 54°
2026-04-26 03:43 34.80796 -116.91936 32240 ft 479 kts 54°
2026-04-26 03:43 34.82731 -116.88631 32594 ft 480 kts 54°
2026-04-26 03:43 34.84668 -116.85318 32911 ft 481 kts 54°
2026-04-26 03:44 34.86616 -116.81985 33217 ft 483 kts 54°
2026-04-26 03:44 34.88548 -116.78676 33486 ft 485 kts 54°
2026-04-26 03:44 34.90512 -116.75308 33750 ft 487 kts 54°
2026-04-26 03:44 34.92565 -116.72013 34019 ft 489 kts 49°
2026-04-26 03:45 34.94889 -116.68958 34288 ft 491 kts 46°
2026-04-26 03:45 34.97232 -116.65904 34577 ft 493 kts 47°
2026-04-26 03:45 34.99566 -116.62832 34920 ft 493 kts 47°
2026-04-26 03:45 35.01873 -116.59787 35007 ft 499 kts 47°
2026-04-26 03:46 35.06559 -116.53597 34999 ft 496 kts 47°
2026-04-26 03:47 35.13593 -116.44294 35006 ft 496 kts 47°
2026-04-26 03:47 35.18229 -116.38150 35004 ft 495 kts 47°
2026-04-26 03:48 35.22881 -116.31973 34981 ft 496 kts 47°
2026-04-26 03:48 35.27564 -116.25744 34984 ft 496 kts 47°
2026-04-26 03:49 35.32173 -116.19601 35012 ft 496 kts 47°
2026-04-26 03:49 35.36800 -116.13424 35020 ft 497 kts 47°
2026-04-26 03:50 35.41426 -116.07237 35020 ft 497 kts 47°
2026-04-26 03:50 35.46094 -116.00981 34997 ft 497 kts 47°
2026-04-26 03:51 35.50791 -115.94677 34977 ft 496 kts 47°
2026-04-26 03:51 35.55411 -115.88462 34972 ft 496 kts 47°
2026-04-26 03:52 35.60041 -115.82224 34978 ft 497 kts 47°
2026-04-26 03:52 35.64675 -115.75963 34984 ft 497 kts 48°
2026-04-26 03:53 35.69160 -115.69796 34982 ft 498 kts 48°
2026-04-26 03:53 35.73752 -115.63461 35014 ft 499 kts 48°
2026-04-26 03:54 35.78334 -115.57141 35015 ft 500 kts 48°
2026-04-26 03:54 35.82973 -115.50733 34982 ft 501 kts 48°
2026-04-26 03:55 35.87612 -115.44314 34984 ft 501 kts 48°
2026-04-26 03:55 35.92213 -115.37935 35006 ft 500 kts 48°
2026-04-26 03:56 35.96840 -115.31506 35010 ft 501 kts 48°
2026-04-26 03:56 36.01354 -115.25224 35020 ft 501 kts 48°
2026-04-26 03:57 36.05840 -115.18969 35026 ft 500 kts 48°
2026-04-26 03:57 36.10806 -115.12935 35033 ft 499 kts 40°
2026-04-26 03:58 36.16066 -115.07306 35026 ft 499 kts 41°
2026-04-26 03:58 36.21268 -115.01686 35021 ft 498 kts 41°
2026-04-26 03:59 36.26491 -114.96042 35008 ft 497 kts 41°
2026-04-26 03:59 36.31681 -114.90427 34981 ft 496 kts 41°
2026-04-26 04:00 36.36436 -114.85274 34970 ft 495 kts 41°
2026-04-26 04:00 36.41593 -114.79676 34978 ft 495 kts 41°
2026-04-26 04:01 36.46782 -114.74036 35003 ft 495 kts 41°
2026-04-26 04:01 36.51981 -114.68375 35002 ft 496 kts 41°
2026-04-26 04:02 36.56855 -114.63058 35002 ft 497 kts 41°